period_start,C,m1,H,J0,J1,J2,J3,J4,J5,JA,JB,JC,JD,JJ,JK,JN,#
2018-04-02 00:01:53,0.11,0.78,0.00,25.33,27.81,30.79,13.74,48.28,1012.22,2024.10,3104.04,2861.26,3278.54,600.14,588.99,6.63,0000 0000 0000 0000 000000
2018-04-02 00:06:54,0.12,0.78,0.00,25.34,27.82,30.80,13.76,48.16,1012.20,2024.04,3101.49,2859.60,3276.53,600.04,588.72,6.68,0000 0000 0000 0000 000000
2018-04-02 00:11:56,0.12,0.79,0.00,25.35,27.82,30.81,13.72,48.18,1012.21,2024.03,3099.04,2857.94,3274.55,599.93,588.68,6.73,0000 0000 0000 0000 000000
2018-04-02 00:16:57,0.12,0.80,0.00,25.35,27.83,30.85,13.73,48.17,1012.21,2024.02,3096.37,2856.24,3272.57,600.24,589.04,6.78,0000 0000 0000 0000 000000
2018-04-02 00:21:59,0.12,0.80,0.00,25.37,27.85,30.84,13.71,48.19,1012.22,2024.02,3093.85,2854.60,3270.66,600.01,588.74,6.83,0000 0000 0000 0000 000000
2018-04-02 00:27:00,0.12,0.81,0.00,25.37,27.85,30.83,13.70,48.27,1012.22,2024.02,3091.37,2852.91,3268.74,599.86,588.64,6.88,0000 0000 0000 0000 000000
2018-04-02 00:32:01,0.12,0.82,0.00,25.39,27.86,30.87,13.73,48.22,1012.22,2024.01,3088.96,2851.28,3266.75,600.01,588.73,6.93,0000 0000 0000 0000 000000
2018-04-02 00:37:02,0.12,0.82,0.00,25.41,27.87,30.84,13.75,48.30,1012.22,2024.00,3086.52,2849.63,3264.75,600.01,588.72,6.98,0000 0000 0000 0000 000000
2018-04-02 00:42:03,0.12,0.83,0.00,25.44,27.89,30.86,13.83,48.35,1012.22,2024.00,3084.09,2847.97,3262.90,600.35,588.88,7.03,0000 0000 0000 0000 000000
2018-04-02 00:47:04,0.11,0.83,0.00,25.47,27.90,30.87,13.84,48.35,1012.22,2024.00,3081.70,2846.34,3261.05,600.28,588.88,7.09,0000 0000 0000 0000 000000
2018-04-02 00:52:05,0.12,0.84,0.00,25.49,27.91,30.86,13.66,48.20,1012.23,2024.00,3079.25,2844.66,3259.11,600.26,588.74,7.14,0000 0000 0000 0000 000000
2018-04-02 00:57:06,0.12,0.85,0.00,25.50,27.92,30.91,13.68,48.41,1012.24,2024.00,3076.82,2843.00,3257.14,600.02,588.49,7.19,0000 0000 0000 0000 000000
2018-04-02 01:02:07,0.11,0.85,0.00,25.51,27.93,30.90,13.70,48.42,1012.29,2024.00,3074.39,2841.45,3255.32,600.06,588.60,7.24,0000 0000 0000 0000 000000
2018-04-02 01:07:09,0.12,0.86,0.00,25.52,27.95,30.88,13.75,48.54,1012.39,2023.99,3072.01,2839.80,3253.32,600.44,588.91,7.29,0000 0000 0000 0000 000000
2018-04-02 01:12:10,0.11,0.86,0.00,25.52,27.95,30.90,13.80,48.53,1012.55,2023.98,3069.81,2838.26,3251.52,600.29,588.93,7.34,0000 0000 0000 0000 000000
2018-04-02 01:17:11,0.12,0.87,0.00,25.51,27.95,30.94,13.75,48.53,1012.61,2023.98,3067.44,2836.65,3249.62,600.05,588.71,7.39,0000 0000 0000 0000 000000
2018-04-02 01:22:12,0.11,0.88,0.00,25.52,27.96,30.95,13.75,48.68,1012.71,2023.98,3065.14,2835.09,3247.80,600.14,588.90,7.44,0000 0000 0000 0000 000000
2018-04-02 01:27:13,0.11,0.88,0.00,25.54,27.97,30.94,13.71,48.66,1012.71,2023.96,3062.87,2833.57,3245.99,599.94,588.67,7.49,0000 0000 0000 0000 000000
2018-04-02 01:32:15,0.12,0.89,0.00,25.53,27.97,30.88,13.78,48.72,1012.70,2023.96,3060.44,2831.89,3244.04,600.20,588.96,7.54,0000 0000 0000 0000 000000
2018-04-02 01:37:16,0.11,0.89,0.00,25.56,27.97,30.87,13.70,48.66,1012.71,2023.97,3058.10,2830.44,3242.31,599.98,588.62,7.59,0000 0000 0000 0000 000000
2018-04-02 01:42:17,0.12,0.90,0.00,25.57,27.97,30.80,13.74,48.62,1012.70,2023.98,3055.66,2828.77,3240.47,599.96,588.55,7.64,0000 0000 0000 0000 000000
2018-04-02 01:47:18,0.11,0.91,0.00,25.58,27.97,30.79,13.71,48.65,1012.71,2023.98,3053.27,2827.31,3238.64,600.14,588.72,7.69,0000 0000 0000 0000 000000
2018-04-02 01:52:19,0.12,0.91,0.00,25.60,27.97,30.75,13.77,48.63,1012.71,2023.98,3051.08,2825.75,3236.72,600.15,588.65,7.74,0000 0000 0000 0000 000000
2018-04-02 01:57:21,0.11,0.92,0.00,25.62,27.97,30.73,13.72,48.59,1012.71,2023.98,3048.84,2824.28,3234.90,600.21,588.74,7.79,0000 0000 0000 0000 000000
2018-04-02 02:02:22,0.11,0.92,0.00,25.64,27.97,30.74,13.68,48.48,1012.71,2023.97,3046.53,2822.70,3233.10,600.02,588.58,7.84,0000 0000 0000 0000 000000
2018-04-02 02:07:23,0.11,0.93,0.00,25.66,27.96,30.81,13.71,48.55,1012.72,2023.97,3044.18,2821.13,3231.21,600.05,588.46,7.89,0000 0000 0000 0000 000000
2018-04-02 02:12:24,0.12,0.93,0.00,25.70,27.95,30.79,13.76,48.59,1012.73,2023.98,3041.87,2819.62,3229.43,600.09,588.33,7.94,0000 0000 0000 0000 000000
2018-04-02 02:17:25,0.12,0.94,0.00,25.74,27.95,30.78,13.68,48.56,1012.72,2023.99,3039.54,2818.06,3227.60,600.16,588.43,7.99,0000 0000 0000 0000 000000
2018-04-02 02:22:26,0.12,0.95,0.00,25.78,27.95,30.80,13.64,48.63,1012.75,2023.99,3037.14,2816.53,3225.72,599.70,587.96,8.04,0000 0000 0000 0000 000000
2018-04-02 02:27:27,0.11,0.95,0.00,25.82,27.95,30.83,13.76,48.62,1012.92,2023.99,3034.66,2814.99,3223.90,600.22,588.46,8.09,0000 0000 0000 0000 000000
2018-04-02 02:32:29,0.11,0.96,0.00,25.84,27.95,30.86,13.68,48.57,1013.19,2023.99,3032.30,2813.48,3222.04,600.17,588.56,8.14,0000 0000 0000 0000 000000
2018-04-02 02:37:30,0.12,0.97,0.00,25.89,27.95,30.87,13.69,48.58,1013.20,2023.99,3029.85,2811.86,3220.19,600.24,588.41,8.19,0000 0000 0000 0000 000000
2018-04-02 02:42:31,0.11,0.97,0.00,25.94,27.95,30.86,13.71,48.68,1013.20,2023.99,3027.52,2810.34,3218.28,599.74,587.95,8.24,0000 0000 0000 0000 000000
2018-04-02 02:47:32,0.12,0.98,0.00,25.99,27.96,30.88,13.74,48.58,1013.21,2023.99,3025.21,2808.72,3216.41,600.00,588.17,8.29,0000 0000 0000 0000 000000
2018-04-02 02:52:34,0.11,0.98,0.00,26.03,27.97,30.87,13.68,48.60,1013.23,2023.99,3022.92,2807.18,3214.57,600.06,588.09,8.34,0000 0000 0000 0000 000000
2018-04-02 02:57:35,0.13,0.99,0.00,25.96,27.97,30.83,13.66,48.63,1013.51,2023.99,3020.50,2805.57,3212.64,599.74,588.05,8.39,0000 0000 0000 0000 000000
2018-04-02 03:02:36,0.12,1.00,0.00,25.80,27.97,30.81,13.69,48.73,1013.62,2023.99,3018.09,2803.89,3210.74,599.79,588.53,8.44,0000 0000 0000 0000 000000
2018-04-02 03:07:38,0.11,1.00,0.00,25.78,27.99,30.80,13.70,48.77,1013.68,2023.98,3015.76,2802.41,3208.82,600.04,588.83,8.49,0000 0000 0000 0000 000000
2018-04-02 03:12:39,0.12,1.01,0.00,25.80,28.00,30.81,13.67,48.74,1013.69,2023.98,3013.41,2800.73,3206.89,600.24,588.82,8.54,0000 0000 0000 0000 000000
2018-04-02 03:17:40,0.11,1.01,0.00,25.82,28.01,30.82,13.66,48.73,1013.69,2023.97,3011.15,2799.23,3205.07,599.96,588.54,8.59,0000 0000 0000 0000 000000
2018-04-02 03:22:42,0.13,1.02,0.00,25.85,28.02,30.84,13.68,48.73,1013.69,2023.93,3008.54,2797.48,3203.10,600.23,588.88,8.64,0000 0000 0000 0000 000000
2018-04-02 03:27:43,0.14,1.03,0.00,25.89,28.05,30.86,13.75,48.84,1013.69,2023.95,3005.87,2795.59,3200.97,600.36,588.88,8.69,0000 0000 0000 0000 000000
2018-04-02 03:32:45,0.11,1.03,0.00,25.93,28.06,30.88,13.59,48.77,1013.70,2023.93,3003.51,2793.83,3198.94,599.88,588.41,8.74,0000 0000 0000 0000 000000
2018-04-02 03:37:46,0.11,1.04,0.00,25.98,28.08,30.92,13.70,48.70,1013.83,2023.78,3000.99,2792.10,3196.94,599.82,588.31,8.79,0000 0000 0000 0000 000000
2018-04-02 03:42:47,0.11,1.05,0.00,26.06,28.10,30.91,13.72,48.71,1014.14,2023.53,2998.34,2790.35,3194.86,600.13,588.59,8.84,0000 0000 0000 0000 000000
2018-04-02 03:47:48,0.11,1.05,0.00,26.10,28.12,30.94,13.73,48.73,1014.17,2023.30,2995.87,2788.57,3192.79,599.98,588.35,8.89,0000 0000 0000 0000 000000
2018-04-02 03:52:50,0.11,1.06,0.00,26.13,28.15,30.97,13.60,48.73,1014.18,2023.07,2993.36,2786.81,3190.69,599.96,588.27,8.94,0000 0000 0000 0000 000000
2018-04-02 03:57:51,0.12,1.06,0.00,26.19,28.17,31.00,13.63,48.68,1014.18,2023.02,2990.93,2785.12,3188.69,599.74,588.02,8.99,0000 0000 0000 0000 000000
2018-04-02 04:02:52,0.14,1.07,0.00,26.26,28.20,31.02,13.66,48.67,1014.19,2023.00,2988.21,2783.24,3186.54,599.72,587.88,9.04,0000 0000 0000 0000 000000
2018-04-02 04:07:53,0.14,1.08,0.00,26.31,28.23,31.04,13.72,48.74,1014.26,2023.00,2985.41,2781.23,3184.31,599.95,587.90,9.09,0000 0000 0000 0000 000000
2018-04-02 04:12:55,0.15,1.09,0.00,26.35,28.26,31.08,13.68,48.73,1014.46,2023.00,2982.46,2779.20,3181.96,599.64,587.82,9.14,0000 0000 0000 0000 000000
2018-04-02 04:17:56,0.16,1.09,0.00,26.41,28.30,31.11,13.71,48.64,1014.62,2022.99,2979.47,2777.03,3179.55,600.29,588.37,9.19,0000 0000 0000 0000 000000
2018-04-02 04:22:57,0.15,1.10,0.00,26.45,28.34,31.15,13.69,48.63,1014.66,2022.98,2976.49,2774.93,3177.12,599.95,588.06,9.24,0000 0000 0000 0000 000000
2018-04-02 04:27:59,0.16,1.11,0.00,26.50,28.38,31.20,13.70,48.72,1014.66,2022.92,2973.43,2772.71,3174.57,600.06,587.99,9.29,0000 0000 0000 0000 000000
2018-04-02 04:33:00,0.08,1.12,0.00,26.54,28.42,31.22,13.69,48.68,1014.66,2022.43,2970.87,2770.65,3171.95,600.01,587.88,9.34,0000 0000 0000 0000 000000
2018-04-02 04:38:01,0.13,1.12,0.00,26.60,28.46,31.26,13.75,48.60,1014.66,2022.03,2968.12,2768.63,3169.52,600.21,587.95,9.39,0000 0000 0000 0000 000000
2018-04-02 04:43:03,0.15,1.13,0.00,26.64,28.51,31.31,13.69,48.67,1014.66,2022.00,2965.29,2766.64,3167.17,600.00,587.72,9.44,0000 0000 0000 0000 000000
2018-04-02 04:48:04,0.14,1.14,0.00,26.69,28.55,31.36,13.64,48.60,1014.68,2021.98,2962.56,2764.69,3164.87,599.70,587.32,9.50,0000 0000 0000 0000 000000
2018-04-02 04:53:06,0.14,1.14,0.00,26.75,28.59,31.38,13.64,48.56,1014.72,2021.94,2959.83,2762.79,3162.56,599.88,587.37,9.55,0000 0000 0000 0000 000000
2018-04-02 04:58:07,0.09,1.15,0.00,26.81,28.63,31.43,13.59,48.48,1015.05,2021.41,2957.08,2760.87,3160.29,599.64,587.18,9.60,0000 0000 0000 0000 000000
2018-04-02 05:03:09,0.13,1.16,0.00,26.87,28.68,31.47,13.64,48.58,1015.15,2021.12,2954.16,2758.86,3158.01,599.78,587.42,9.65,0000 0000 0000 0000 000000
2018-04-02 05:08:10,0.15,1.16,0.00,26.93,28.73,31.53,13.68,48.64,1015.16,2021.02,2951.16,2756.74,3155.60,600.27,587.57,9.70,0000 0000 0000 0000 000000
2018-04-02 05:13:12,0.15,1.17,0.00,27.01,28.77,31.56,13.64,48.52,1015.20,2021.00,2948.53,2754.81,3153.21,599.71,586.96,9.75,0000 0000 0000 0000 000000
2018-04-02 05:18:13,0.16,1.18,0.00,27.06,28.82,31.61,13.67,48.52,1015.48,2020.99,2945.53,2752.70,3150.94,600.33,587.67,9.80,0000 0000 0000 0000 000000
2018-04-02 05:23:15,0.15,1.19,0.00,27.12,28.87,31.66,13.69,48.52,1015.63,2020.98,2942.75,2750.72,3148.45,600.30,587.53,9.85,0000 0000 0000 0000 000000
2018-04-02 05:28:16,0.10,1.19,0.00,27.17,28.91,31.71,13.67,48.59,1015.64,2020.61,2939.93,2748.75,3146.09,599.94,587.19,9.90,0000 0000 0000 0000 000000
2018-04-02 05:33:18,0.12,1.20,0.00,27.20,28.96,31.75,13.58,48.44,1015.64,2020.10,2937.07,2746.63,3143.61,599.83,586.96,9.95,0000 0000 0000 0000 000000
2018-04-02 05:38:19,0.16,1.21,0.00,27.25,29.01,31.79,13.69,48.48,1015.64,2020.00,2934.06,2744.49,3141.15,600.11,587.16,10.00,0000 0000 0000 0000 000000
2018-04-02 05:43:20,0.17,1.21,0.00,27.26,29.06,31.85,13.71,48.52,1015.79,2020.00,2931.08,2742.24,3138.55,600.01,587.10,10.05,0000 0000 0000 0000 000000
2018-04-02 05:48:21,0.16,1.22,0.00,27.31,29.11,31.90,13.63,48.49,1016.05,2019.98,2928.03,2740.06,3136.07,600.18,587.30,10.10,0000 0000 0000 0000 000000
2018-04-02 05:53:22,0.13,1.23,0.00,27.36,29.16,31.95,13.60,48.58,1016.06,2019.79,2924.82,2737.74,3133.63,599.56,586.60,10.15,0000 0000 0000 0000 000000
2018-04-02 05:58:24,0.13,1.24,0.00,27.42,29.20,32.00,13.72,48.48,1016.13,2019.23,2921.64,2735.39,3130.96,600.38,587.40,10.20,0000 0000 0000 0000 000000
2018-04-02 06:03:25,0.18,1.25,0.00,27.47,29.25,32.04,13.68,48.56,1016.13,2019.03,2918.43,2732.99,3128.18,600.58,587.39,10.25,0000 0000 0000 0000 000000
2018-04-02 06:08:26,0.17,1.25,0.00,27.53,29.29,32.08,13.66,48.48,1016.13,2019.00,2915.20,2730.63,3125.46,599.94,586.71,10.30,0000 0000 0000 0000 000000
2018-04-02 06:13:27,0.20,1.26,0.00,27.59,29.34,32.13,13.62,48.52,1016.14,2018.99,2911.75,2728.06,3122.61,599.73,586.34,10.35,0000 0000 0000 0000 000000
2018-04-02 06:18:28,0.18,1.27,0.00,27.65,29.39,32.17,13.62,48.61,1016.15,2018.98,2908.23,2725.50,3119.70,600.03,586.65,10.40,0000 0000 0000 0000 000000
2018-04-02 06:23:30,0.19,1.28,0.00,27.70,29.43,32.21,13.65,48.70,1016.17,2018.90,2904.79,2722.86,3116.74,599.68,586.19,10.45,0000 0000 0000 0000 000000
2018-04-02 06:28:31,0.12,1.29,0.00,27.73,29.48,32.28,13.71,48.70,1016.39,2018.23,2901.25,2720.23,3113.72,600.58,587.13,10.50,0000 0000 0000 0000 000000
2018-04-02 06:33:33,0.18,1.30,0.00,27.79,29.52,32.32,13.71,48.73,1016.60,2018.01,2897.78,2717.58,3110.72,600.24,586.78,10.55,0000 0000 0000 0000 000000
2018-04-02 06:38:34,0.20,1.31,0.00,27.83,29.56,32.38,13.70,48.73,1016.62,2018.00,2894.38,2715.02,3107.80,600.45,586.83,10.60,0000 0000 0000 0000 000000
2018-04-02 06:43:36,0.19,1.32,0.00,27.90,29.61,32.43,13.62,48.63,1016.66,2017.98,2890.92,2712.42,3104.86,600.06,586.42,10.65,0000 0000 0000 0000 000000
2018-04-02 06:48:37,0.18,1.33,0.00,27.95,29.65,32.47,13.64,48.45,1016.92,2017.87,2887.59,2709.93,3101.97,599.96,586.33,10.70,0000 0000 0000 0000 000000
2018-04-02 06:53:38,0.13,1.34,0.00,27.98,29.69,32.52,13.66,48.51,1017.07,2017.39,2884.21,2707.42,3099.07,600.43,586.96,10.75,0000 0000 0000 0000 000000
2018-04-02 06:58:39,0.17,1.34,0.00,28.02,29.74,32.57,13.59,48.73,1017.10,2017.04,2880.93,2704.93,3096.16,599.49,585.84,10.80,0000 0000 0000 0000 000000
2018-04-02 07:03:41,0.19,1.35,0.00,28.08,29.78,32.62,13.66,48.76,1017.13,2017.00,2877.59,2702.32,3093.23,600.13,586.41,10.85,0000 0000 0000 0000 000000
2018-04-02 07:08:42,0.19,1.36,0.00,28.13,29.82,32.66,13.62,48.55,1017.29,2016.99,2874.17,2699.72,3090.28,600.11,586.39,10.90,0000 0000 0000 0000 000000
2018-04-02 07:13:43,0.18,1.37,0.00,28.21,29.86,32.70,13.65,48.50,1017.56,2016.96,2870.96,2697.24,3087.43,600.26,586.54,10.95,0000 0000 0000 0000 000000
2018-04-02 07:18:44,0.13,1.38,0.00,28.27,29.91,32.76,13.61,48.52,1017.59,2016.50,2867.62,2694.75,3084.57,599.81,586.08,11.00,0000 0000 0000 0000 000000
2018-04-02 07:23:46,0.18,1.39,0.00,28.31,29.95,32.80,13.63,48.54,1017.59,2016.05,2864.18,2692.15,3081.60,600.22,586.32,11.05,0000 0000 0000 0000 000000
2018-04-02 07:28:47,0.19,1.40,0.00,28.35,30.00,32.85,13.67,48.58,1017.62,2016.00,2860.79,2689.55,3078.65,599.91,585.95,11.10,0000 0000 0000 0000 000000
2018-04-02 07:33:48,0.20,1.41,0.00,28.40,30.05,32.91,13.58,48.54,1017.66,2015.99,2857.38,2687.04,3075.72,599.94,585.89,11.15,0000 0000 0000 0000 000000
2018-04-02 07:38:48,0.19,1.42,0.00,28.44,30.10,32.96,13.63,48.59,1018.01,2015.96,2854.06,2684.57,3072.87,600.00,586.20,11.20,0000 0000 0000 0000 000000
2018-04-02 07:43:50,0.12,1.43,0.00,28.50,30.15,33.01,13.59,48.51,1018.08,2015.49,2850.81,2682.14,3070.12,599.93,585.94,11.25,0000 0000 0000 0000 000000
2018-04-02 07:48:51,0.16,1.43,0.00,28.55,30.19,33.05,13.54,48.44,1018.09,2015.04,2847.47,2679.63,3067.28,599.88,585.81,11.30,0000 0000 0000 0000 000000
2018-04-02 07:53:53,0.20,1.44,0.00,28.58,30.24,33.11,13.56,48.36,1018.13,2015.00,2844.11,2677.10,3064.42,599.88,585.81,11.35,0000 0000 0000 0000 000000
2018-04-02 07:58:54,0.18,1.45,0.00,28.63,30.29,33.15,13.59,48.52,1018.35,2014.94,2840.86,2674.67,3061.61,599.77,585.74,11.40,0000 0000 0000 0000 000000
2018-04-02 08:03:55,0.13,1.46,0.00,28.70,30.34,33.20,13.64,48.55,1018.46,2014.46,2837.55,2672.15,3058.75,600.16,586.03,11.45,0000 0000 0000 0000 000000
2018-04-02 08:08:57,0.15,1.47,0.00,28.74,30.38,33.24,13.54,48.46,1018.46,2014.06,2834.45,2669.73,3056.01,599.87,585.62,11.50,0000 0000 0000 0000 000000
2018-04-02 08:13:58,0.18,1.48,0.00,28.77,30.43,33.29,13.59,48.58,1018.54,2014.00,2831.38,2667.39,3053.23,599.76,585.59,11.55,0000 0000 0000 0000 000000
2018-04-02 08:18:59,0.18,1.49,0.00,28.80,30.48,33.34,13.65,48.50,1018.57,2013.98,2828.26,2665.01,3050.50,600.16,585.81,11.60,0000 0000 0000 0000 000000
2018-04-02 08:24:01,0.16,1.49,0.00,28.85,30.53,33.40,13.62,48.42,1018.62,2013.82,2825.13,2662.62,3047.80,600.02,585.67,11.65,0000 0000 0000 0000 000000
2018-04-02 08:29:02,0.11,1.50,0.00,28.89,30.57,33.46,13.60,48.42,1018.83,2013.18,2822.03,2660.27,3045.08,600.00,585.60,11.70,0000 0000 0000 0000 000000
2018-04-02 08:34:03,0.17,1.51,0.00,28.94,30.62,33.52,13.61,48.49,1019.04,2013.00,2819.09,2658.04,3042.44,600.02,585.73,11.75,0000 0000 0000 0000 000000
2018-04-02 08:39:05,0.17,1.52,0.00,28.97,30.67,33.57,13.66,48.42,1019.06,2013.00,2816.13,2655.72,3039.82,599.99,585.64,11.80,0000 0000 0000 0000 000000
2018-04-02 08:44:06,0.16,1.53,0.00,29.00,30.72,33.62,13.63,48.45,1019.10,2012.91,2813.34,2653.48,3037.19,600.09,585.72,11.85,0000 0000 0000 0000 000000
2018-04-02 08:49:07,0.11,1.53,0.00,29.05,30.76,33.66,13.60,48.45,1019.39,2012.32,2810.36,2651.21,3034.60,600.09,585.76,11.91,0000 0000 0000 0000 000000
2018-04-02 08:54:08,0.16,1.54,0.00,29.07,30.81,33.72,13.66,48.48,1019.54,2012.06,2807.40,2648.99,3032.12,600.04,585.87,11.96,0000 0000 0000 0000 000000
2018-04-02 08:59:09,0.17,1.55,0.00,29.09,30.86,33.76,13.63,48.42,1019.55,2012.00,2804.41,2646.72,3029.50,600.15,585.80,12.01,0000 0000 0000 0000 000000
2018-04-02 09:04:10,0.17,1.56,0.00,29.11,30.90,33.81,13.67,48.46,1019.64,2011.98,2801.38,2644.42,3026.91,600.35,586.03,12.06,0000 0000 0000 0000 000000
2018-04-02 09:09:12,0.15,1.57,0.00,29.14,30.95,33.85,13.55,48.41,1019.98,2011.91,2798.66,2642.32,3024.47,599.79,585.65,12.11,0000 0000 0000 0000 000000
2018-04-02 09:14:13,0.09,1.57,0.00,29.16,30.99,33.90,13.56,48.39,1020.13,2011.28,2795.87,2640.16,3021.94,599.90,585.87,12.16,0000 0000 0000 0000 000000
2018-04-02 09:19:15,0.16,1.58,0.00,29.20,31.03,33.93,13.55,48.35,1020.52,2011.01,2793.10,2638.04,3019.45,599.91,585.99,12.21,0000 0000 0000 0000 000000
2018-04-02 09:24:16,0.17,1.59,0.00,29.20,31.08,33.97,13.66,48.38,1020.53,2011.00,2790.20,2635.87,3017.00,599.73,585.79,12.26,0000 0000 0000 0000 000000
2018-04-02 09:29:17,0.16,1.60,0.00,29.23,31.11,33.99,13.72,48.53,1020.54,2010.96,2787.34,2633.71,3014.52,600.39,586.41,12.31,0000 0000 0000 0000 000000
2018-04-02 09:34:18,0.11,1.61,0.00,29.25,31.16,34.03,13.65,48.67,1020.87,2010.59,2784.59,2631.53,3011.99,600.07,586.17,12.36,0000 0000 0000 0000 000000
2018-04-02 09:39:19,0.12,1.61,0.00,29.26,31.19,34.06,13.57,48.40,1021.01,2010.06,2781.92,2629.46,3009.56,599.96,586.26,12.41,0000 0000 0000 0000 000000
2018-04-02 09:44:20,0.17,1.62,0.00,29.29,31.23,34.11,13.58,48.48,1021.03,2010.00,2779.02,2627.31,3007.25,599.88,586.14,12.46,0000 0000 0000 0000 000000
2018-04-02 09:49:22,0.17,1.63,0.00,29.28,31.26,34.14,13.68,48.62,1021.26,2010.00,2776.05,2625.21,3004.90,600.14,586.45,12.51,0000 0000 0000 0000 000000
2018-04-02 09:54:23,0.15,1.64,0.00,29.29,31.30,34.17,13.59,48.36,1021.46,2009.96,2773.37,2623.19,3002.51,599.92,586.21,12.56,0000 0000 0000 0000 000000
2018-04-02 09:59:24,0.13,1.64,0.00,29.30,31.33,34.20,13.72,48.39,1021.51,2009.76,2770.80,2621.32,3000.18,600.11,586.53,12.61,0000 0000 0000 0000 000000
2018-04-02 10:04:26,0.11,1.65,0.00,29.30,31.36,34.24,13.57,48.42,1021.56,2009.12,2768.11,2619.28,2997.78,599.89,586.39,12.66,0000 0000 0000 0000 000000
2018-04-02 10:09:27,0.16,1.66,0.00,29.29,31.38,34.26,13.65,48.52,1021.59,2009.01,2765.26,2617.22,2995.45,599.87,586.41,12.71,0000 0000 0000 0000 000000
2018-04-02 10:14:29,0.16,1.66,0.00,29.28,31.41,34.31,13.67,48.47,1021.76,2009.00,2762.49,2615.17,2993.06,600.07,586.90,12.76,0000 0000 0000 0000 000000
2018-04-02 10:19:30,0.17,1.67,0.00,29.24,31.43,34.34,13.56,48.48,1021.94,2008.99,2759.65,2613.07,2990.69,599.52,586.29,12.81,0000 0000 0000 0000 000000
2018-04-02 10:24:31,0.15,1.68,0.00,29.23,31.45,34.35,13.69,48.57,1021.99,2008.95,2756.86,2610.99,2988.34,600.31,587.15,12.86,0000 0000 0000 0000 000000
2018-04-02 10:29:32,0.16,1.69,0.00,29.20,31.47,34.40,13.73,48.46,1022.03,2008.88,2754.21,2609.01,2986.11,600.12,587.09,12.91,0000 0000 0000 0000 000000
2018-04-02 10:34:34,0.14,1.70,0.00,29.17,31.50,34.40,13.74,48.59,1022.00,2008.67,2751.50,2607.09,2983.89,600.43,587.48,12.96,0000 0000 0000 0000 000000
2018-04-02 10:39:35,0.13,1.70,0.00,29.12,31.51,34.42,13.61,48.64,1021.97,2008.55,2748.95,2605.09,2981.64,600.09,587.09,13.01,0000 0000 0000 0000 000000
2018-04-02 10:44:36,0.13,1.71,0.00,29.06,31.52,34.42,13.70,48.75,1021.78,2008.18,2746.19,2603.10,2979.35,599.78,586.84,13.06,0000 0000 0000 0000 000000
2018-04-02 10:49:38,0.15,1.72,0.00,28.99,31.53,34.42,13.70,48.66,1021.95,2008.05,2743.49,2601.09,2977.08,599.81,587.09,13.11,0000 0000 0000 0000 000000
2018-04-02 10:54:39,0.16,1.73,0.00,28.95,31.55,34.44,13.69,48.54,1022.17,2008.02,2740.79,2599.14,2974.84,599.46,586.87,13.16,0000 0000 0000 0000 000000
2018-04-02 10:59:40,0.15,1.73,0.00,28.92,31.55,34.44,13.67,48.48,1022.49,2008.01,2738.27,2597.24,2972.63,599.40,587.21,13.21,0000 0000 0000 0000 000000
2018-04-02 11:04:41,0.15,1.74,0.00,28.93,31.55,34.44,13.67,48.46,1022.49,2008.00,2735.70,2595.35,2970.40,599.44,587.16,13.26,0000 0000 0000 0000 000000
2018-04-02 11:09:42,0.16,1.75,0.00,28.92,31.55,34.44,13.67,48.48,1022.50,2008.00,2733.12,2593.44,2968.23,600.05,587.77,13.31,0000 0000 0000 0000 000000
2018-04-02 11:14:44,0.15,1.76,0.00,28.93,31.55,34.44,13.74,48.42,1022.48,2008.00,2730.57,2591.57,2966.02,600.26,587.98,13.36,0000 0000 0000 0000 000000
2018-04-02 11:19:45,0.15,1.77,0.00,28.91,31.55,34.43,13.69,48.46,1022.71,2008.00,2728.15,2589.71,2963.91,600.03,587.90,13.41,0000 0000 0000 0000 000000
2018-04-02 11:24:46,0.15,1.77,0.00,28.91,31.55,34.43,13.69,48.32,1022.96,2008.00,2725.76,2587.95,2961.87,600.00,588.02,13.46,0000 0000 0000 0000 000000
2018-04-02 11:29:47,0.15,1.78,0.00,28.90,31.55,34.44,13.68,48.35,1023.33,2008.00,2723.17,2586.08,2959.77,599.77,588.06,13.51,0000 0000 0000 0000 000000
2018-04-02 11:34:49,0.15,1.79,0.00,28.91,31.55,34.42,13.76,48.41,1023.42,2008.00,2720.57,2584.23,2957.61,600.31,588.41,13.56,0000 0000 0000 0000 000000
2018-04-02 11:39:50,0.15,1.80,0.00,28.91,31.55,34.42,13.73,48.40,1023.07,2008.00,2718.14,2582.41,2955.52,600.25,588.33,13.61,0000 0000 0000 0000 000000
2018-04-02 11:44:52,0.15,1.80,0.00,28.90,31.55,34.43,13.72,48.29,1023.38,2008.00,2715.62,2580.58,2953.44,599.94,588.18,13.66,0000 0000 0000 0000 000000
2018-04-02 11:49:53,0.15,1.81,0.00,28.90,31.55,34.39,13.69,48.36,1023.45,2008.00,2713.22,2578.77,2951.33,599.70,588.00,13.71,0000 0000 0000 0000 000000
2018-04-02 11:54:54,0.15,1.82,0.00,28.90,31.56,34.41,13.74,48.36,1023.47,2008.00,2710.65,2576.91,2949.27,600.04,588.38,13.76,0000 0000 0000 0000 000000
2018-04-02 11:59:56,0.15,1.83,0.00,28.90,31.56,34.40,13.72,48.34,1023.46,2007.99,2708.15,2575.07,2947.21,600.14,588.42,13.81,0000 0000 0000 0000 000000
2018-04-02 12:04:57,0.14,1.84,0.00,28.90,31.56,34.42,13.65,48.33,1023.46,2007.98,2705.73,2573.39,2945.18,599.53,587.91,13.86,0000 0000 0000 0000 000000
2018-04-02 12:09:58,0.15,1.84,0.00,28.91,31.57,34.42,13.75,48.35,1023.72,2007.98,2703.36,2571.58,2943.22,600.18,588.74,13.91,0000 0000 0000 0000 000000
2018-04-02 12:15:00,0.15,1.85,0.00,28.90,31.57,34.42,13.78,48.35,1023.95,2007.98,2701.05,2569.81,2941.15,600.02,588.59,13.96,0000 0000 0000 0000 000000
2018-04-02 12:20:01,0.15,1.86,0.00,28.88,31.57,34.42,13.76,48.32,1023.95,2007.96,2698.44,2567.96,2939.05,600.22,588.86,14.01,0000 0000 0000 0000 000000
2018-04-02 12:25:02,0.13,1.87,0.00,28.88,31.57,34.41,13.69,48.26,1023.94,2007.96,2696.21,2566.29,2937.09,599.68,588.32,14.06,0000 0000 0000 0000 000000
2018-04-02 12:30:04,0.14,1.87,0.00,28.87,31.57,34.40,13.70,48.33,1023.94,2007.95,2693.94,2564.58,2935.07,599.92,588.61,14.11,0000 0000 0000 0000 000000
2018-04-02 12:35:05,0.15,1.88,0.00,28.87,31.57,34.39,13.72,48.43,1023.73,2007.93,2691.30,2562.75,2933.05,600.19,588.63,14.16,0000 0000 0000 0000 000000
2018-04-02 12:40:06,0.14,1.89,0.00,28.85,31.56,34.40,13.69,48.26,1023.95,2007.90,2688.79,2560.92,2930.95,600.02,588.72,14.21,0000 0000 0000 0000 000000
2018-04-02 12:45:07,0.13,1.90,0.00,28.85,31.55,34.41,13.71,48.39,1023.96,2007.84,2686.48,2559.29,2928.96,599.56,588.34,14.26,0000 0000 0000 0000 000000
2018-04-02 12:50:08,0.13,1.90,0.00,28.84,31.55,34.42,13.69,48.38,1023.95,2007.71,2684.05,2557.69,2926.95,600.16,588.82,14.31,0000 0000 0000 0000 000000
2018-04-02 12:55:09,0.13,1.91,0.00,28.85,31.55,34.43,13.75,48.26,1023.97,2007.77,2682.09,2556.12,2925.02,599.81,588.52,14.37,0000 0000 0000 0000 000000